CW4047 Weather Reports


time (UTC)temp
F
wind
direction
speed
knots
gust
knots
rain 1hr
in
rain 24hr
in
rain mn
in
humidity
%
barometer
mb
20260505214132 80 195 2.6 7.0 0.00 0.00 0.00 36 1009.2
20260505213631 80 200 2.6 8.7 0.00 0.00 0.00 35 1009.1
20260505213132 80 165 3.5 12.2 0.00 0.00 0.00 35 1009.1
20260505212620 80 188 4.3 12.2 0.00 0.00 0.00 35 1009.1
20260505212117 80 26 4.3 12.2 0.00 0.00 0.00 34 1009.0
20260505211616 81 163 3.5 7.8 0.00 0.00 0.00 34 1009.0
20260505211115 81 218 3.5 11.3 0.00 0.00 0.00 34 1008.9
20260505210615 81 220 5.2 11.3 0.00 0.00 0.00 31 1008.9
20260505210115 81 186 4.3 11.3 0.00 0.00 0.00 33 1009.0
20260505205857 81 194 4.3 12.2 0.00 0.00 0.00 34 1009.0
20260505205115 82 118 2.6 12.2 0.00 0.00 0.00 32 1008.9
20260505204903 81 249 4.3 13.9 0.00 0.00 0.00 31 1008.9
20260505204115 81 185 2.6 14.8 0.00 0.00 0.00 33 1009.0
20260505203917 81 254 5.2 14.8 0.00 0.00 0.00 30 1008.9
20260505203114 82 193 6.1 14.8 0.00 0.00 0.00 33 1009.0
20260505202616 82 180 4.3 13.0 0.00 0.00 0.00 31 1009.0
20260505202118 82 218 3.5 11.3 0.00 0.00 0.00 33 1009.1
20260505201616 82 260 1.7 13.9 0.00 0.00 0.00 32 1008.9
20260505201113 82 215 4.3 13.9 0.00 0.00 0.00 31 1009.2
20260505200610 82 140 3.5 10.4 0.00 0.00 0.00 32 1009.2
20260505200107 81 184 2.6 8.7 0.00 0.00 0.00 33 1009.1
20260505195605 81 221 3.5 9.6 0.00 0.00 0.00 32 1009.1
20260505195104 81 219 6.1 11.3 0.00 0.00 0.00 32 1009.3
20260505194605 81 192 3.5 11.3 0.00 0.00 0.00 32 1009.4
20260505194104 81 223 3.5 11.3 0.00 0.00 0.00 34 1009.3
20260505193604 81 156 2.6 12.2 0.00 0.00 0.00 34 1009.4
20260505193102 81 209 5.2 13.9 0.00 0.00 0.00 34 1009.4
20260505192846 81 82 5.2 13.9 0.00 0.00 0.00 34 1009.4
20260505192344 81 148 2.6 7.8 0.00 0.00 0.00 36 1009.5
20260505191845 81 183 3.5 10.4 0.00 0.00 0.00 37 1009.5
20260505191126 81 190 4.3 10.4 0.00 0.00 0.00 37 1009.6
20260505190104 81 167 5.2 9.6 0.00 0.00 0.00 37 1009.7
20260505185602 81 232 1.7 11.3 0.00 0.00 0.00 38 1009.8
20260505185347 80 155 5.2 13.9 0.00 0.00 0.00 37 1009.8
20260505184602 80 178 4.3 17.4 0.00 0.00 0.00 38 1009.9
20260505184102 80 243 5.2 13.9 0.00 0.00 0.00 37 1010.1
20260505183603 81 258 4.3 13.9 0.00 0.00 0.00 37 1009.8
20260505183349 81 199 2.6 7.8 0.00 0.00 0.00 40 1009.9
20260505182847 80 242 3.5 7.8 0.00 0.00 0.00 37 1009.9
20260505182103 80 267 4.3 13.0 0.00 0.00 0.00 38 1010.2
20260505181604 80 229 5.2 13.0 0.00 0.00 0.00 38 1010.3
20260505181103 80 128 2.6 8.7 0.00 0.00 0.00 37 1010.4
20260505180848 80 236 1.7 8.7 0.00 0.00 0.00 38 1010.5
20260505180104 80 140 3.5 7.0 0.00 0.00 0.00 37 1010.7
20260505175845 80 236 2.6 7.0 0.00 0.00 0.00 41 1010.6
20260505175104 79 227 3.5 10.4 0.00 0.00 0.00 39 1010.7
20260505174624 80 181 3.5 10.4 0.00 0.00 0.00 39 1010.7
20260505173602 79 213 1.7 11.3 0.00 0.00 0.00 40 1010.8
20260505173105 79 236 5.2 11.3 0.00 0.00 0.00 38 1010.8
20260505172603 79 227 3.5 10.4 0.00 0.00 0.00 39 1010.8
20260505172103 78 156 2.6 8.7 0.00 0.00 0.00 38 1010.8
20260505171604 78 197 4.3 12.2 0.00 0.00 0.00 40 1010.9
20260505171103 78 280 3.5 12.2 0.00 0.00 0.00 42 1011.0
20260505170602 78 155 2.6 10.4 0.00 0.00 0.00 41 1011.0
20260505165604 78 241 4.3 10.4 0.00 0.00 0.00 41 1011.2
20260505165105 78 233 4.3 10.4 0.00 0.00 0.00 40 1011.3
20260505164605 78 242 3.5 8.7 0.00 0.00 0.00 42 1011.4
20260505164105 78 247 3.5 8.7 0.00 0.00 0.00 42 1011.4
20260505163605 77 156 3.5 7.8 0.00 0.00 0.00 42 1011.5
20260505163106 77 196 5.2 8.7 0.00 0.00 0.00 44 1011.5
20260505162605 77 195 2.6 8.7 0.00 0.00 0.00 46 1011.6
20260505162104 77 236 1.7 9.6 0.00 0.00 0.00 48 1011.6
20260505161605 77 215 1.7 9.6 0.00 0.00 0.00 44 1011.7
20260505161105 76 204 3.5 7.8 0.00 0.00 0.00 46 1011.8
20260505160605 76 208 3.5 7.8 0.00 0.00 0.00 47 1011.9
20260505160104 77 236 2.6 7.8 0.00 0.00 0.00 45 1011.9
20260505153103 75 249 0.9 5.2 0.00 0.00 0.00 49 1012.0
20260505152604 75 215 3.5 7.0 0.00 0.00 0.00 49 1012.1
20260505152347 75 181 1.7 12.2 0.00 0.00 0.00 49 1012.0
20260505151603 75 229 1.7 12.2 0.00 0.00 0.00 50 1012.0
20260505151124 75 242 2.6 7.8 0.00 0.00 0.00 51 1011.9
20260505150347 75 177 1.7 4.3 0.00 0.00 0.00 49 1011.8
20260505140601 71 220 1.7 3.5 0.00 0.00 0.00 55 1012.1
20260505140345 71 224 0.9 3.5 0.00 0.00 0.00 56 1012.1
20260505124601 64 215 0.9 4.3 0.00 0.00 0.00 65 1012.4
20260505124101 64 216 1.7 4.3 0.00 0.00 0.00 65 1012.5
20260505123848 63 215 1.7 3.5 0.00 0.00 0.00 66 1012.5
20260505123424 62 215 0.9 4.3 0.00 0.00 0.00 67 1012.4
20260505122605 62 215 2.6 4.3 0.00 0.00 0.00 67 1012.4
20260505122102 61 206 0.9 3.5 0.00 0.00 0.00 68 1012.5
20260505121558 61 206 0.9 2.6 0.00 0.00 0.00 69 1012.4
20260505121057 60 206 0.0 2.6 0.00 0.00 0.00 69 1012.4
20260505120556 60 211 0.9 1.7 0.00 0.00 0.00 70 1012.3
20260505120127 60 211 0.0 1.7 0.00 0.00 0.00 70 1012.3
20260505115053 59 235 0.0 1.7 0.00 0.00 0.00 71 1012.3
20260505114555 58 235 0.9 1.7 0.00 0.00 0.00 72 1012.2
20260505114053 58 235 0.9 1.7 0.00 0.00 0.00 73 1012.2
20260505113836 58 235 0.0 2.6 0.00 0.00 0.00 74 1012.1
20260505113053 57 235 0.0 2.6 0.00 0.00 0.00 74 1012.2
20260505112553 57 235 0.0 1.7 0.00 0.00 0.00 75 1012.1
20260505112051 56 235 0.0 1.7 0.00 0.00 0.00 76 1012.1
20260505111552 56 235 0.0 1.7 0.00 0.00 0.00 76 1012.1
20260505111050 56 235 0.0 0.9 0.00 0.00 0.00 77 1012.0
20260505110551 56 235 0.0 1.7 0.00 0.00 0.00 77 1011.9
20260505101840 53 236 0.0 0.0 0.00 0.00 0.00 81 1011.5
20260505101052 53 236 0.0 0.0 0.00 0.00 0.00 81 1011.4
20260505100551 53 236 0.0 0.0 0.00 0.00 0.00 81 1011.4
20260505100051 54 236 0.0 0.0 0.00 0.00 0.00 80 1011.4
20260505095553 54 236 0.0 0.0 0.00 0.00 0.00 80 1011.4
20260505095051 54 236 0.0 0.0 0.00 0.00 0.00 80 1011.3
20260505094552 54 236 0.0 0.0 0.00 0.00 0.00 80 1011.3
20260505094054 54 236 0.0 0.0 0.00 0.00 0.00 79 1011.4
20260505093554 54 236 0.0 0.0 0.00 0.00 0.00 79 1011.3
20260505093054 55 236 0.0 1.7 0.00 0.00 0.00 79 1011.3
20260505092553 55 236 0.0 1.7 0.00 0.00 0.00 79 1011.2
20260505092053 55 236 0.0 1.7 0.00 0.00 0.00 79 1011.3
20260505091549 55 219 0.0 1.7 0.00 0.00 0.00 80 1011.2
20260505091046 54 236 0.0 0.9 0.00 0.00 0.00 80 1011.3
20260505090537 54 236 0.0 0.0 0.00 0.00 0.00 80 1011.3
20260505090036 54 236 0.0 0.0 0.00 0.00 0.00 81 1011.2
20260505085533 54 236 0.0 0.0 0.00 0.00 0.00 80 1011.3
20260505085031 54 236 0.0 0.0 0.00 0.00 0.00 80 1011.2
20260505084532 54 236 0.0 0.0 0.00 0.00 0.00 80 1011.3
20260505084031 54 236 0.0 0.0 0.00 0.00 0.00 80 1011.2
20260505083531 54 236 0.0 0.0 0.00 0.00 0.00 80 1011.2
20260505083027 54 236 0.0 0.0 0.00 0.00 0.00 81 1011.2
20260505082825 54 236 0.0 1.7 0.00 0.00 0.00 81 1011.3
20260505082308 54 236 0.0 1.7 0.00 0.00 0.00 81 1011.3
20260505081528 54 236 0.0 0.9 0.00 0.00 0.00 81 1011.3
20260505081259 54 236 0.0 0.9 0.00 0.00 0.00 81 1011.3
20260505080758 54 236 0.0 0.0 0.00 0.00 0.00 81 1011.2
20260505080002 54 236 0.0 0.0 0.00 0.00 0.00 81 1011.1
20260505075505 54 236 0.0 0.0 0.00 0.00 0.00 81 1010.9
20260505075005 54 236 0.0 0.0 0.00 0.00 0.00 82 1010.8
20260505074505 54 236 0.0 0.0 0.00 0.00 0.00 82 1010.8
20260505074004 53 236 0.0 0.0 0.00 0.00 0.00 82 1010.9
20260505073503 53 236 0.0 0.0 0.00 0.00 0.00 83 1010.8
20260505073035 53 236 0.0 0.0 0.00 0.00 0.00 83 1010.9
20260505072258 52 236 0.0 0.0 0.00 0.00 0.00 84 1010.7
20260505071005 52 236 0.0 0.0 0.00 0.00 0.00 84 1010.7
20260505070743 52 236 0.0 0.0 0.00 0.00 0.00 84 1010.8
20260505070004 52 236 0.0 0.0 0.00 0.00 0.00 83 1010.7
20260505065503 52 236 0.0 0.0 0.00 0.00 0.00 83 1010.7
20260505065245 52 236 0.0 0.0 0.00 0.00 0.00 82 1010.8
20260505064744 52 236 0.0 0.0 0.00 0.00 0.00 82 1010.8
20260505064001 53 236 0.0 0.0 0.00 0.00 0.00 82 1010.9
20260505063502 53 236 0.0 0.0 0.00 0.00 0.00 81 1010.9
20260505062956 53 236 0.0 0.0 0.00 0.00 0.00 81 1010.9
20260505062452 53 236 0.0 0.0 0.00 0.00 0.00 81 1011.0
20260505061952 53 236 0.0 0.0 0.00 0.00 0.00 80 1011.0
20260505061451 54 236 0.0 0.0 0.00 0.00 0.00 80 1011.0
20260505060950 54 236 0.0 0.0 0.00 0.00 0.00 79 1011.0
20260505060733 54 236 0.0 0.0 0.00 0.00 0.00 79 1010.9
20260505055952 55 236 0.0 0.0 0.00 0.00 0.00 79 1010.9
20260505055442 55 236 0.0 0.0 0.00 0.00 0.00 78 1010.9
20260505054939 55 236 0.0 0.0 0.00 0.00 0.00 78 1010.9
20260505054439 56 236 0.0 0.0 0.00 0.00 0.00 77 1010.9
20260505053939 56 236 0.0 0.0 0.00 0.00 0.00 76 1010.9
20260505053438 56 236 0.0 0.0 0.00 0.00 0.00 76 1010.9
20260505052934 57 236 0.0 0.0 0.00 0.00 0.00 75 1011.0
20260505052430 57 236 0.0 0.0 0.00 0.00 0.00 74 1011.0
20260505051930 58 236 0.0 0.0 0.00 0.00 0.00 74 1011.0
20260505051429 58 236 0.0 0.0 0.00 0.00 0.00 73 1011.0
20260505050930 58 236 0.0 0.0 0.00 0.00 0.00 73 1011.1
20260505050710 58 236 0.0 0.0 0.00 0.00 0.00 73 1011.1
20260505041431 58 236 0.0 1.7 0.00 0.00 0.00 72 1011.0
20260505041210 58 236 0.0 0.0 0.00 0.00 0.00 72 1010.9
20260505040710 58 236 0.0 0.0 0.00 0.00 0.00 71 1011.0
20260505035931 59 236 0.0 0.0 0.00 0.00 0.00 71 1010.9
20260505035432 60 236 0.0 0.0 0.00 0.00 0.00 68 1010.9
20260505034932 60 236 0.0 0.0 0.00 0.00 0.00 68 1010.7
20260505034432 61 236 0.0 0.0 0.00 0.00 0.00 67 1010.7
20260505034213 61 236 0.0 0.0 0.00 0.00 0.00 66 1010.8
20260505033432 62 236 0.0 0.0 0.00 0.00 0.00 65 1010.8
20260505032931 62 236 0.0 0.0 0.00 0.00 0.00 63 1010.9
20260505032431 63 236 0.0 1.7 0.00 0.00 0.00 62 1010.9
20260505031931 63 236 0.0 1.7 0.00 0.00 0.00 61 1010.9
20260505031431 63 236 0.0 1.7 0.00 0.00 0.00 60 1011.0
20260505030931 63 236 0.0 0.0 0.00 0.00 0.00 60 1011.0
20260505030432 64 236 0.0 0.0 0.00 0.00 0.00 59 1010.9
20260505025930 64 236 0.0 0.0 0.00 0.00 0.00 59 1010.9
20260505025428 64 236 0.0 1.7 0.00 0.00 0.00 58 1010.8
20260505024929 65 236 0.0 1.7 0.00 0.00 0.00 57 1010.9
20260505024430 65 236 0.0 1.7 0.00 0.00 0.00 57 1010.8
20260505023929 65 236 0.0 1.7 0.00 0.00 0.00 56 1010.9
20260505023429 66 236 0.0 0.9 0.00 0.00 0.00 56 1010.9
20260505022929 66 236 0.0 0.9 0.00 0.00 0.00 55 1010.9
20260505022429 66 236 0.0 2.6 0.00 0.00 0.00 55 1010.9
20260505021929 66 236 0.0 2.6 0.00 0.00 0.00 54 1010.9
20260505021430 66 236 0.0 1.7 0.00 0.00 0.00 55 1010.8
20260505020929 67 236 0.0 1.7 0.00 0.00 0.00 54 1010.7
20260505020428 66 236 0.0 1.7 0.00 0.00 0.00 54 1010.7
20260505015930 66 236 0.0 1.7 0.00 0.00 0.00 55 1010.6
20260505015710 66 236 0.0 1.7 0.00 0.00 0.00 54 1010.6
20260505014927 67 236 0.0 1.7 0.00 0.00 0.00 53 1010.5
20260505014419 67 236 0.0 1.7 0.00 0.00 0.00 53 1010.4
20260505013914 67 236 0.0 1.7 0.00 0.00 0.00 52 1010.5
20260505013656 67 236 0.0 1.7 0.00 0.00 0.00 52 1010.5
20260505012908 68 236 0.0 1.7 0.00 0.00 0.00 51 1010.4
20260505012405 68 236 0.0 2.6 0.00 0.00 0.00 51 1010.3
20260505011905 68 236 0.0 2.6 0.00 0.00 0.00 51 1010.3
20260505011405 68 236 0.0 1.7 0.00 0.00 0.00 50 1010.1
20260505010905 68 236 0.0 1.7 0.00 0.00 0.00 50 1010.1
20260505010405 68 236 0.0 1.7 0.00 0.00 0.00 49 1009.8
20260505005905 69 236 0.0 3.5 0.00 0.00 0.00 49 1009.9
20260505005406 69 236 0.0 3.5 0.00 0.00 0.00 49 1010.1
20260505004905 69 234 0.9 3.5 0.00 0.00 0.00 48 1009.9
20260505004406 69 234 0.9 3.5 0.00 0.00 0.00 48 1009.9
20260505004146 69 234 0.9 2.6 0.00 0.00 0.00 48 1009.7
20260505003405 70 234 0.9 2.6 0.00 0.00 0.00 47 1009.7
20260505002903 70 184 0.0 3.5 0.00 0.00 0.00 46 1009.8
20260505002405 70 184 1.7 3.5 0.00 0.00 0.00 46 1009.8
20260505001903 70 184 0.9 3.5 0.00 0.00 0.00 46 1009.7
20260505001645 70 184 0.9 1.7 0.00 0.00 0.00 45 1009.7
20260505000904 71 184 0.0 3.5 0.00 0.00 0.00 45 1009.6
20260505000405 71 184 0.9 4.3 0.00 0.00 0.00 45 1009.7
20260504235903 71 184 0.9 4.3 0.00 0.00 0.00 45 1009.7
20260504235404 71 210 0.9 3.5 0.00 0.00 0.00 45 1009.7
20260504234903 71 210 0.0 1.7 0.00 0.00 0.00 44 1009.6
20260504234404 71 210 0.9 3.5 0.00 0.00 0.00 44 1009.5
20260504233903 71 210 0.9 3.5 0.00 0.00 0.00 44 1009.5
20260504233404 71 241 1.7 4.3 0.00 0.00 0.00 43 1009.5
20260504232902 72 217 0.9 4.3 0.00 0.00 0.00 43 1009.4
20260504232402 72 217 0.9 5.2 0.00 0.00 0.00 43 1009.4
20260504232201 72 216 1.7 8.7 0.00 0.00 0.00 42 1009.5
20260504231645 72 203 1.7 8.7 0.00 0.00 0.00 43 1009.4
20260504230901 72 165 1.7 7.8 0.00 0.00 0.00 41 1009.4
20260504230401 73 257 2.6 5.2 0.00 0.00 0.00 41 1009.4
20260504225901 73 187 0.9 5.2 0.00 0.00 0.00 42 1009.4
20260504225401 73 139 1.7 5.2 0.00 0.00 0.00 41 1009.4
20260504224901 73 160 1.7 7.8 0.00 0.00 0.00 41 1009.4
20260504224401 73 225 5.2 7.8 0.00 0.00 0.00 39 1009.4
20260504223901 74 139 4.3 11.3 0.00 0.00 0.00 39 1009.3
20260504223402 74 128 4.3 11.3 0.00 0.00 0.00 39 1009.3
20260504222901 74 202 0.9 6.1 0.00 0.00 0.00 39 1009.3
20260504222402 74 229 2.6 6.1 0.00 0.00 0.00 39 1009.4
20260504222200 74 223 1.7 5.2 0.00 0.00 0.00 40 1009.3
20260504221646 74 207 0.9 6.1 0.00 0.00 0.00 39 1009.3
20260504220900 74 230 1.7 6.1 0.00 0.00 0.00 40 1009.2
20260504220404 74 126 0.9 5.2 0.00 0.00 0.00 38 1009.2
20260504220147 74 180 1.7 4.3 0.00 0.00 0.00 39 1009.2
20260504215403 74 229 1.7 6.1 0.00 0.00 0.00 38 1009.2
20260504214904 74 224 2.6 6.1 0.00 0.00 0.00 39 1009.3